GW3580 Weather Reports


Display with metric or nautical units.
time (UTC)temp
F
wind
direction
speed
MPH
gust
MPH
rain 1hr
in
rain 24hr
in
rain mn
in
humidity
%
barometer
mb
20260905091304 64 265 2.0 2.0 0.00 0.00 0.00 59 1012.5
20260905090803 64 256 2.0 2.0 0.00 0.00 0.00 58 1012.9
20260905090259 64 254 0.0 1.0 0.00 0.00 0.00 58 1012.6
20260905085758 64 247 2.0 2.0 0.00 0.00 0.00 58 1012.7
20260905085253 64 238 2.0 2.0 0.00 0.00 0.00 57 1012.8
20260905084748 65 244 1.0 1.0 0.00 0.00 0.00 56 1012.6
20260905084248 65 273 0.0 1.0 0.00 0.00 0.00 55 1012.9
20260905083743 65 277 2.0 2.0 0.00 0.00 0.00 54 1012.8
20260905083238 65 256 2.0 4.0 0.00 0.00 0.00 54 1013.0
20260905082734 65 288 5.0 6.0 0.00 0.00 0.00 53 1012.9
20260905082230 65 279 2.0 2.0 0.00 0.00 0.00 53 1012.9
20260905081729 66 273 1.0 1.0 0.00 0.00 0.00 52 1012.8
20260905081225 66 252 4.0 5.0 0.00 0.00 0.00 52 1012.8
20260905080719 66 269 2.0 2.0 0.00 0.00 0.00 51 1012.8
20260905080219 66 271 3.0 4.0 0.00 0.00 0.00 52 1012.7
20260905075718 66 228 4.0 4.0 0.00 0.00 0.00 52 1012.9
20260905075217 66 251 2.0 2.0 0.00 0.00 0.00 52 1012.8
20260905074716 67 286 2.0 2.0 0.00 0.00 0.00 51 1012.7
20260905074212 67 244 2.0 2.0 0.00 0.00 0.00 51 1012.8
20260905073708 67 247 2.0 4.0 0.00 0.00 0.00 50 1012.6
20260905073203 67 245 2.0 2.0 0.00 0.00 0.00 49 1012.6
20260905072702 67 293 4.0 5.0 0.00 0.00 0.00 49 1012.5
20260905072158 67 250 5.0 6.0 0.00 0.00 0.00 48 1012.7
20260905071654 68 255 1.0 1.0 0.00 0.00 0.00 48 1012.7
20260905071150 68 273 3.0 4.0 0.00 0.00 0.00 48 1012.5
20260905070644 68 279 3.0 4.0 0.00 0.00 0.00 47 1012.3
20260905070141 68 294 4.0 6.0 0.00 0.00 0.00 46 1012.4
20260905065639 68 248 3.0 5.0 0.00 0.00 0.00 46 1012.5
20260905065133 68 247 3.0 4.0 0.00 0.00 0.00 46 1012.2
20260905064629 68 271 1.0 2.0 0.00 0.00 0.00 46 1012.3
20260905064124 68 203 4.0 5.0 0.00 0.00 0.00 46 1012.3
20260905063623 69 232 1.0 2.0 0.00 0.00 0.00 47 1012.2
20260905063120 69 274 2.0 2.0 0.00 0.00 0.00 48 1012.5
20260905062615 69 249 2.0 2.0 0.00 0.00 0.00 47 1012.3
20260905062114 69 264 1.0 1.0 0.00 0.00 0.00 47 1012.0
20260905061609 69 242 3.0 5.0 0.00 0.00 0.00 47 1012.1
20260905061103 69 256 2.0 2.0 0.00 0.00 0.00 49 1012.1
20260905060559 69 224 2.0 2.0 0.00 0.00 0.00 50 1012.1
20260905060054 69 265 3.0 4.0 0.00 0.00 0.00 49 1011.9
20260905055553 69 192 1.0 1.0 0.00 0.00 0.00 50 1012.0
20260905055049 69 277 1.0 1.0 0.00 0.00 0.00 50 1012.1
20260905054543 69 279 1.0 1.0 0.00 0.00 0.00 49 1012.0
20260905054039 69 247 2.0 2.0 0.00 0.00 0.00 49 1012.0
20260905053533 69 231 2.0 2.0 0.00 0.00 0.00 49 1012.2
20260905053029 69 242 1.0 2.0 0.00 0.00 0.00 50 1011.9
20260905052527 69 266 1.0 1.0 0.00 0.00 0.00 50 1012.2
20260905052022 69 244 2.0 2.0 0.00 0.00 0.00 52 1012.1
20260905051518 69 227 0.0 1.0 0.00 0.00 0.00 52 1011.9
20260905051015 69 263 1.0 1.0 0.00 0.00 0.00 52 1011.9
20260905050510 69 249 1.0 1.0 0.00 0.00 0.00 53 1011.9
20260905050007 69 260 0.0 1.0 0.00 0.00 0.00 53 1012.3
20260905045501 69 42 0.0 1.0 0.00 0.00 0.00 53 1011.9
20260905044956 69 238 1.0 1.0 0.00 0.00 0.00 52 1012.0
20260905044451 70 152 0.0 0.0 0.00 0.00 0.00 52 1011.9
20260905043951 70 160 0.0 1.0 0.00 0.00 0.00 50 1011.8
20260905043450 70 307 0.0 0.0 0.00 0.00 0.00 48 1011.7
20260905042945 71 278 3.0 4.0 0.00 0.00 0.00 48 1011.8
20260905042445 70 246 2.0 2.0 0.00 0.00 0.00 52 1011.8
20260905041940 70 257 1.0 1.0 0.00 0.00 0.00 51 1011.8
20260905041436 70 35 0.0 0.0 0.00 0.00 0.00 50 1011.6
20260905040931 70 40 1.0 1.0 0.00 0.00 0.00 50 1011.6
20260905040430 71 42 0.0 0.0 0.00 0.00 0.00 51 1011.5
20260905035930 71 35 0.0 0.0 0.00 0.00 0.00 50 1011.4
20260905035425 71 35 0.0 0.0 0.00 0.00 0.00 50 1011.3
20260905034922 71 22 0.0 0.0 0.00 0.00 0.00 48 1011.5
20260905034416 71 273 0.0 0.0 0.00 0.00 0.00 49 1011.2
20260905033916 72 14 0.0 0.0 0.00 0.00 0.00 49 1011.1
20260905033411 72 268 0.0 0.0 0.00 0.00 0.00 50 1011.3
20260905032910 72 14 0.0 1.0 0.00 0.00 0.00 51 1011.1
20260905032406 73 17 0.0 0.0 0.00 0.00 0.00 50 1011.1
20260905031901 73 17 0.0 0.0 0.00 0.00 0.00 49 1011.0
20260905031357 73 280 0.0 0.0 0.00 0.00 0.00 48 1010.9
20260905030852 73 269 2.0 2.0 0.00 0.00 0.00 49 1011.0
20260905030348 74 155 1.0 1.0 0.00 0.00 0.00 49 1010.9
20260905025846 74 225 0.0 0.0 0.00 0.00 0.00 49 1010.9
20260905025342 74 269 0.0 0.0 0.00 0.00 0.00 49 1011.0
20260905024839 75 269 1.0 1.0 0.00 0.00 0.00 48 1011.0
20260905024333 75 268 0.0 0.0 0.00 0.00 0.00 47 1010.8
20260905023829 75 266 0.0 1.0 0.00 0.00 0.00 46 1010.6
20260905023324 76 256 0.0 0.0 0.00 0.00 0.00 45 1010.8
20260905022822 76 264 0.0 0.0 0.00 0.00 0.00 44 1010.9
20260905022318 77 237 1.0 1.0 0.00 0.00 0.00 43 1010.6
20260905021813 77 242 0.0 0.0 0.00 0.00 0.00 42 1010.6
20260905021308 78 261 1.0 1.0 0.00 0.00 0.00 41 1011.0
20260905020802 78 237 1.0 1.0 0.00 0.00 0.00 40 1010.5
20260905020257 79 269 3.0 4.0 0.00 0.00 0.00 39 1010.9
20260905015756 80 207 0.0 1.0 0.00 0.00 0.00 38 1010.6
20260905015250 80 85 0.0 0.0 0.00 0.00 0.00 37 1010.8
20260905014749 80 221 0.0 0.0 0.00 0.00 0.00 37 1010.9
20260905014245 81 235 1.0 2.0 0.00 0.00 0.00 36 1010.8
20260905013741 80 107 0.0 0.0 0.00 0.00 0.00 35 1010.6
20260905013236 81 101 1.0 1.0 0.00 0.00 0.00 35 1010.6
20260905012731 82 36 1.0 1.0 0.00 0.00 0.00 34 1010.8
20260905012227 81 248 2.0 2.0 0.00 0.00 0.00 34 1010.8
20260905011724 82 308 4.0 5.0 0.00 0.00 0.00 33 1010.6
20260905011214 82 238 3.0 5.0 0.00 0.00 0.00 34 1010.6
20260905010714 82 61 2.0 2.0 0.00 0.00 0.00 33 1010.6
20260905010209 82 234 2.0 2.0 0.00 0.00 0.00 33 1010.6
20260905005705 82 267 2.0 2.0 0.00 0.00 0.00 34 1010.6
20260905005201 82 284 2.0 2.0 0.00 0.00 0.00 34 1010.6
20260905004655 82 257 4.0 5.0 0.00 0.00 0.00 35 1010.8
20260905004150 82 222 4.0 6.0 0.00 0.00 0.00 33 1010.5
20260905003646 83 257 5.0 6.0 0.00 0.00 0.00 34 1010.9
20260905003142 82 262 1.0 2.0 0.00 0.00 0.00 35 1010.8
20260905002637 82 257 1.0 2.0 0.00 0.00 0.00 35 1010.5
20260905002131 83 273 6.0 7.0 0.00 0.00 0.00 34 1010.8
20260905001627 83 249 2.0 5.0 0.00 0.00 0.00 34 1010.5
20260905001126 83 224 3.0 4.0 0.00 0.00 0.00 34 1010.6
20260905000621 83 288 4.0 5.0 0.00 0.00 0.00 34 1010.6
20260905000117 84 243 1.0 1.0 0.00 0.00 0.00 35 1010.5
20260904235617 83 274 4.0 5.0 0.00 0.00 0.00 34 1010.5
20260904235116 83 284 4.0 5.0 0.00 0.00 0.00 34 1010.6
20260904234612 82 254 4.0 5.0 0.00 0.00 0.00 33 1010.9
20260904234107 83 245 3.0 4.0 0.00 0.00 0.00 34 1010.9
20260904233603 83 2 2.0 2.0 0.00 0.00 0.00 34 1010.8
20260904233058 82 273 7.0 8.0 0.00 0.00 0.00 35 1011.0
20260904232555 84 232 4.0 6.0 0.00 0.00 0.00 35 1011.0
20260904232051 84 350 1.0 1.0 0.00 0.00 0.00 36 1011.0
20260904231546 84 244 2.0 2.0 0.00 0.00 0.00 35 1011.0
20260904231041 83 240 2.0 2.0 0.00 0.00 0.00 35 1011.1
20260904230540 83 314 1.0 1.0 0.00 0.00 0.00 35 1011.1
20260904230036 83 54 2.0 2.0 0.00 0.00 0.00 35 1011.2
20260904225534 82 67 3.0 4.0 0.00 0.00 0.00 36 1011.1
20260904225033 84 57 1.0 1.0 0.00 0.00 0.00 34 1011.4
20260904224529 82 229 2.0 2.0 0.00 0.00 0.00 35 1011.2
20260904224028 83 253 4.0 5.0 0.00 0.00 0.00 36 1011.4
20260904223527 82 271 1.0 1.0 0.00 0.00 0.00 36 1011.4
20260904223024 83 225 2.0 4.0 0.00 0.00 0.00 36 1011.6
20260904222519 84 271 4.0 5.0 0.00 0.00 0.00 35 1011.5
20260904222014 83 313 1.0 1.0 0.00 0.00 0.00 35 1011.6
20260904221508 84 58 2.0 2.0 0.00 0.00 0.00 36 1011.7
20260904221003 83 352 2.0 2.0 0.00 0.00 0.00 37 1011.9
20260904220503 82 213 3.0 4.0 0.00 0.00 0.00 36 1011.8
20260904215958 83 304 3.0 4.0 0.00 0.00 0.00 37 1011.8
20260904215453 83 277 1.0 2.0 0.00 0.00 0.00 37 1012.0
20260904214948 83 28 1.0 1.0 0.00 0.00 0.00 37 1012.0
20260904214444 82 309 1.0 1.0 0.00 0.00 0.00 39 1012.0
20260904213939 82 14 2.0 2.0 0.00 0.00 0.00 39 1012.0
20260904213432 81 265 2.0 2.0 0.00 0.00 0.00 40 1012.0
20260904212929 82 219 1.0 1.0 0.00 0.00 0.00 40 1012.1
20260904212428 82 211 0.0 1.0 0.00 0.00 0.00 40 1012.1
20260904211924 82 62 3.0 4.0 0.00 0.00 0.00 40 1012.2
20260904211418 81 32 2.0 4.0 0.00 0.00 0.00 40 1012.1
20260904210914 80 262 0.0 0.0 0.00 0.00 0.00 40 1012.2
20260904210413 79 254 1.0 2.0 0.00 0.00 0.00 41 1012.4
20260904205909 80 244 4.0 5.0 0.00 0.00 0.00 41 1012.2
20260904205404 81 261 4.0 5.0 0.00 0.00 0.00 43 1012.4
20260904204901 80 63 1.0 1.0 0.00 0.00 0.00 42 1012.4
20260904204357 81 20 3.0 4.0 0.00 0.00 0.00 43 1012.6
20260904203853 80 323 3.0 4.0 0.00 0.00 0.00 43 1012.4
20260904203349 79 63 1.0 2.0 0.00 0.00 0.00 41 1012.8
20260904202844 79 245 4.0 5.0 0.00 0.00 0.00 43 1012.6
20260904202341 79 287 3.0 5.0 0.00 0.00 0.00 44 1012.6
20260904201836 78 338 2.0 2.0 0.00 0.00 0.00 44 1012.5
20260904201336 79 245 4.0 5.0 0.00 0.00 0.00 45 1012.6
20260904200831 79 352 0.0 0.0 0.00 0.00 0.00 44 1012.8
20260904200330 78 13 2.0 2.0 0.00 0.00 0.00 46 1012.5
20260904195825 77 257 1.0 1.0 0.00 0.00 0.00 47 1012.6
20260904195323 78 256 4.0 6.0 0.00 0.00 0.00 47 1012.7
20260904194818 78 253 1.0 2.0 0.00 0.00 0.00 46 1012.8
20260904194317 78 311 2.0 2.0 0.00 0.00 0.00 48 1012.6
20260904193813 78 274 5.0 6.0 0.00 0.00 0.00 48 1012.9
20260904193308 78 89 0.0 0.0 0.00 0.00 0.00 46 1012.9
20260904192803 77 353 0.0 0.0 0.00 0.00 0.00 49 1013.1
20260904192258 77 289 2.0 2.0 0.00 0.00 0.00 49 1013.1
20260904191755 77 267 4.0 5.0 0.00 0.00 0.00 49 1013.1
20260904191251 78 264 3.0 4.0 0.00 0.00 0.00 49 1013.1
20260904190748 77 11 0.0 1.0 0.00 0.00 0.00 49 1013.2
20260904190243 77 289 3.0 4.0 0.00 0.00 0.00 51 1013.1
20260904185739 76 285 2.0 2.0 0.00 0.00 0.00 51 1013.0
20260904185234 76 195 2.0 2.0 0.00 0.00 0.00 51 1013.2
20260904184733 76 302 1.0 2.0 0.00 0.00 0.00 52 1013.3
20260904184229 75 297 3.0 4.0 0.00 0.00 0.00 52 1013.1
20260904183725 75 251 5.0 6.0 0.00 0.00 0.00 52 1013.2
20260904183225 75 7 2.0 4.0 0.00 0.00 0.00 53 1013.2
20260904182720 75 269 5.0 6.0 0.00 0.00 0.00 54 1013.3
20260904182215 75 260 5.0 6.0 0.00 0.00 0.00 54 1013.4
20260904181710 75 267 5.0 6.0 0.00 0.00 0.00 54 1013.2
20260904181210 75 26 3.0 5.0 0.00 0.00 0.00 55 1013.3
20260904180706 75 283 3.0 5.0 0.00 0.00 0.00 53 1012.9
20260904180201 75 78 2.0 2.0 0.00 0.00 0.00 53 1013.0
20260904175700 74 271 2.0 2.0 0.00 0.00 0.00 55 1013.1
20260904175158 74 17 3.0 5.0 0.00 0.00 0.00 56 1013.0
20260904174653 73 253 3.0 4.0 0.00 0.00 0.00 56 1013.0
20260904174149 73 321 1.0 1.0 0.00 0.00 0.00 57 1013.2
20260904173645 72 200 2.0 4.0 0.00 0.00 0.00 58 1013.0
20260904173139 72 237 5.0 6.0 0.00 0.00 0.00 59 1012.9
20260904172636 73 202 2.0 2.0 0.00 0.00 0.00 59 1012.9
20260904172135 72 262 2.0 2.0 0.00 0.00 0.00 59 1013.0
20260904171631 72 282 6.0 6.0 0.00 0.00 0.00 60 1013.0
20260904171126 72 264 2.0 4.0 0.00 0.00 0.00 60 1013.1
20260904170622 72 335 4.0 5.0 0.00 0.00 0.00 61 1013.0
20260904170118 71 291 5.0 6.0 0.00 0.00 0.00 62 1012.8
20260904165616 71 255 5.0 6.0 0.00 0.00 0.00 62 1012.7
20260904165116 71 257 5.0 7.0 0.00 0.00 0.00 63 1013.0
20260904164610 71 329 2.0 4.0 0.00 0.00 0.00 63 1012.9
20260904164106 70 268 4.0 5.0 0.00 0.00 0.00 63 1012.8
20260904163601 70 269 3.0 4.0 0.00 0.00 0.00 64 1012.8
20260904163056 71 240 2.0 4.0 0.00 0.00 0.00 64 1012.9
20260904162550 70 292 5.0 6.0 0.00 0.00 0.00 65 1012.6
20260904162046 69 251 1.0 1.0 0.00 0.00 0.00 66 1012.7
20260904161540 69 245 4.0 5.0 0.00 0.00 0.00 67 1012.4
20260904161036 69 261 4.0 4.0 0.00 0.00 0.00 68 1012.5
20260904160531 68 245 2.0 2.0 0.00 0.00 0.00 69 1012.7
20260904160027 68 337 3.0 5.0 0.00 0.00 0.00 70 1012.6
20260904155520 67 289 0.0 1.0 0.00 0.00 0.00 71 1012.8
20260904155020 67 242 5.0 6.0 0.00 0.00 0.00 71 1012.6
20260904154514 67 311 2.0 2.0 0.00 0.00 0.00 72 1012.6
20260904154009 67 260 1.0 2.0 0.00 0.00 0.00 72 1012.7
20260904153509 67 257 1.0 1.0 0.00 0.00 0.00 73 1012.9
20260904153006 66 260 2.0 2.0 0.00 0.00 0.00 74 1012.7
20260904152501 66 54 1.0 1.0 0.00 0.00 0.00 75 1012.7
20260904151955 66 245 2.0 2.0 0.00 0.00 0.00 75 1012.8
20260904151450 66 332 1.0 1.0 0.00 0.00 0.00 76 1012.6
20260904150945 65 121 2.0 2.0 0.00 0.00 0.00 76 1012.4
20260904150440 64 186 0.0 0.0 0.00 0.00 0.00 78 1012.4
20260904145938 64 287 3.0 4.0 0.00 0.00 0.00 78 1012.4
20260904145434 64 257 3.0 4.0 0.00 0.00 0.00 79 1012.5
20260904144930 63 231 2.0 2.0 0.00 0.00 0.00 80 1012.5
20260904144425 63 226 1.0 2.0 0.00 0.00 0.00 80 1012.3
20260904143921 63 262 2.0 2.0 0.00 0.00 0.00 80 1012.3
20260904143417 63 47 0.0 0.0 0.00 0.00 0.00 81 1012.2
20260904142913 62 39 0.0 0.0 0.00 0.00 0.00 82 1012.1
20260904142409 61 40 0.0 0.0 0.00 0.00 0.00 83 1012.1
20260904141903 61 47 0.0 0.0 0.00 0.00 0.00 83 1012.1
20260904141358 61 63 1.0 1.0 0.00 0.00 0.00 83 1012.0
20260904140855 61 46 0.0 0.0 0.00 0.00 0.00 84 1011.8
20260904140349 61 20 0.0 1.0 0.00 0.00 0.00 84 1011.9
20260904135849 61 17 0.0 0.0 0.00 0.00 0.00 84 1011.7
20260904135343 61 17 0.0 0.0 0.00 0.00 0.00 84 1011.7
20260904134840 60 1 0.0 0.0 0.00 0.00 0.00 84 1011.7
20260904134339 60 359 0.0 0.0 0.00 0.00 0.00 84 1011.7
20260904133834 61 9 0.0 1.0 0.00 0.00 0.00 83 1011.6
20260904133330 61 0 0.0 0.0 0.00 0.00 0.00 83 1011.5
20260904132829 61 15 0.0 0.0 0.00 0.00 0.00 83 1011.5
20260904132324 61 359 0.0 0.0 0.00 0.00 0.00 83 1011.5
20260904131824 61 275 0.0 0.0 0.00 0.00 0.00 83 1011.3
20260904131319 61 291 0.0 1.0 0.00 0.00 0.00 83 1011.6
20260904130814 61 322 0.0 1.0 0.00 0.00 0.00 83 1011.4
20260904130313 61 267 1.0 1.0 0.00 0.00 0.00 83 1011.5
20260904125809 62 8 0.0 0.0 0.00 0.00 0.00 82 1011.3
20260904125306 62 280 0.0 1.0 0.00 0.00 0.00 82 1011.1
20260904124804 62 295 0.0 1.0 0.00 0.00 0.00 82 1011.1
20260904124301 62 210 0.0 0.0 0.00 0.00 0.00 82 1011.2
20260904123755 62 250 1.0 1.0 0.00 0.00 0.00 82 1011.2
20260904123251 62 245 1.0 1.0 0.00 0.00 0.00 82 1011.0
20260904122746 62 284 0.0 1.0 0.00 0.00 0.00 81 1011.0
20260904122245 62 260 1.0 1.0 0.00 0.00 0.00 81 1011.0
20260904121741 62 276 1.0 1.0 0.00 0.00 0.00 81 1011.1
20260904121237 62 274 1.0 1.0 0.00 0.00 0.00 81 1011.2
20260904120733 62 284 0.0 1.0 0.00 0.00 0.00 81 1011.1
20260904120229 62 264 2.0 4.0 0.00 0.00 0.00 80 1010.8
20260904115724 62 261 2.0 4.0 0.00 0.00 0.00 80 1011.2
20260904115223 62 259 1.0 1.0 0.00 0.00 0.00 80 1011.4
20260904114719 62 280 1.0 1.0 0.00 0.00 0.00 80 1011.1
20260904114213 62 139 0.0 1.0 0.00 0.00 0.00 80 1011.2
20260904113708 63 244 1.0 1.0 0.00 0.00 0.00 80 1010.9
20260904113207 62 242 1.0 2.0 0.00 0.00 0.00 80 1011.0
20260904112703 62 255 2.0 2.0 0.00 0.00 0.00 80 1010.9
20260904112158 62 106 0.0 0.0 0.00 0.00 0.00 79 1010.9
20260904111654 63 2 0.0 0.0 0.00 0.00 0.00 79 1010.9
20260904111149 63 42 1.0 2.0 0.00 0.00 0.00 79 1010.9
20260904110644 63 67 1.0 2.0 0.00 0.00 0.00 79 1010.6
20260904110143 63 61 0.0 0.0 0.00 0.00 0.00 79 1010.6
20260904105638 63 210 0.0 1.0 0.00 0.00 0.00 79 1010.6
20260904105133 63 255 1.0 1.0 0.00 0.00 0.00 79 1010.9
20260904104629 63 132 0.0 0.0 0.00 0.00 0.00 78 1010.5
20260904104124 63 229 1.0 1.0 0.00 0.00 0.00 79 1010.6
20260904103620 63 69 0.0 0.0 0.00 0.00 0.00 79 1010.5
20260904103116 63 61 0.0 1.0 0.00 0.00 0.00 78 1010.5
20260904102612 63 223 1.0 1.0 0.00 0.00 0.00 78 1010.3
20260904102107 63 174 0.0 0.0 0.00 0.00 0.00 78 1010.4
20260904101603 63 14 0.0 0.0 0.00 0.00 0.00 78 1010.3
20260904101058 63 284 1.0 2.0 0.00 0.00 0.00 77 1010.5
20260904100555 64 273 2.0 2.0 0.00 0.00 0.00 77 1010.3
20260904100049 64 238 2.0 2.0 0.00 0.00 0.00 77 1010.2
20260904095544 64 243 2.0 2.0 0.00 0.00 0.00 76 1010.3
20260904095039 64 264 2.0 2.0 0.00 0.00 0.00 76 1010.2
20260904094533 64 240 4.0 5.0 0.00 0.00 0.00 76 1010.2
20260904094028 64 261 3.0 4.0 0.00 0.00 0.00 76 1010.0
20260904093525 64 294 2.0 2.0 0.00 0.00 0.00 75 1010.4
20260904093020 64 282 2.0 4.0 0.00 0.00 0.00 75 1010.1
20260904092516 64 264 2.0 2.0 0.00 0.00 0.00 75 1010.1
20260904092012 64 249 3.0 5.0 0.00 0.00 0.00 74 1010.0